Regional Weather Roundup
Issued by NWS Sterling, VA

Home | Current Version | Previous Version | Text Only | Print | Product List | Glossary On
Versions: 1 2 3 4 5 6 7 8 9 10 11 12 13 14 15 16 17 18 19 20 21 22 23 24 25 26 27 28 29 30 31 32 33 34 35 36 37 38 39 40 41 42 43 44 45 46 47 48 49 50
000
ASUS41 KLWX 161510
RWRLWX

REGIONAL WEATHER ROUNDUP
NATIONAL WEATHER SERVICE BALTIMORE MD/WASHINGTON DC
1000 AM EST MON JAN 16 2017

Note: "FAIR" indicates few or no clouds below 12,000 feet
with no significant weather and/or obstructions to visibility.
 TC=TEMPERATURE CELSIUS

 * =Non NWS site. Station does not report precipitation (e.g. rain,
    snow, etc.), thunder, or fog.

DCZ001-MDZ009-015-VAZ040>042-051-053>054-161600-
WASHINGTON METRO

CITY           SKY/WX    TMP DP  RH WIND       PRES   REMARKS
WASHINGTON NAT CLOUDY    40  28  62 SE3       30.49S
DULLES         CLOUDY    39  26  59 SE6       30.47R
ANDREWS AFB    CLOUDY    38  28  67 SE3       30.47R
FT BELVOIR     CLOUDY    40  28  62 E3        30.49R
QUANTICO       CLOUDY    40  35  83 S3        30.50R
COLLEGE PARK*  CLOUDY    37  28  70 E3        30.49R
LEESBURG*      CLOUDY    39  30  70 MISG      30.47R
MANASSAS*      CLOUDY   N/A N/A N/A S12       30.48R
GAITHERSBURG*  CLOUDY    37  23  56 S8        30.50S

$$

MDZ006>007-011-014-161600-
BALTIMORE METRO

CITY           SKY/WX    TMP DP  RH WIND       PRES   REMARKS
BWI AIRPORT    CLOUDY    35  27  72 SE3       30.48S
MD SCIENCE CTR   N/A     37  23  56 MISG      30.50S
MARTIN STATE   CLOUDY    34  28  80 CALM      30.51S
ANNAPOLIS      CLOUDY    37  27  67 E3        30.50R
FORT MEADE*    CLOUDY    36  28  75 CALM      30.51S

$$

MDZ012-015-019>023-161600-
MARYLAND EASTERN SHORE

CITY           SKY/WX    TMP DP  RH WIND       PRES   REMARKS
OCEAN CITY     CLOUDY    40  31  70 VRB3      30.50R
SALISBURY      CLOUDY    37  28  70 E7        30.49R
BAY BRIDGE AP* CLOUDY    36  25  64 CALM      30.50R
CAMBRIDGE*     CLOUDY    36  28  75 CALM      30.50R
EASTON*        CLOUDY    37  27  65 E5        30.53R

$$

MDZ017>025-161600-
SOUTHERN MARYLAND

CITY           SKY/WX    TMP DP  RH WIND       PRES   REMARKS
PATUXENT RIVER CLOUDY    39  31  72 E6        30.50R
ST INIGOES     NOT AVBL
LEONARDTOWN*   CLOUDY    39  30  70 E3        30.50S

$$

MDZ003>005-161600-
NORTH CENTRAL MARYLAND

CITY           SKY/WX    TMP DP  RH WIND       PRES   REMARKS
FREDERICK*     CLOUDY    34  27  75 CALM      30.50S
HAGERSTOWN APT CLOUDY    32  24  72 NW6       30.44R
WESTMINSTER*   CLOUDY    34  25  69 SE5       30.44S

$$

MDZ501>502-161600-
WESTERN MARYLAND

CITY           SKY/WX    TMP DP  RH WIND       PRES   REMARKS
OAKLAND*         N/A     32  32 100 S8        30.30R FOG     WCI  25
CUMBERLAND*    CLOUDY    36  32  87 CALM      30.46R

$$

VAZ025>031-161600-
SHENANDOAH VALLEY

CITY           SKY/WX    TMP DP  RH WIND       PRES   REMARKS
WINCHESTER*    CLOUDY    34  27  75 CALM      30.42S
FRONT ROYAL*   NOT AVBL
LURAY*         CLOUDY    37  32  81 CALM      30.41S
NEW MARKET*    CLOUDY    38  25  58 CALM      30.40S
STAUNTON*      CLOUDY    39  37  95 CALM      30.43S FOG
WAYNESBORO*    CLOUDY    39  38  96 S3        30.41R

$$

WVZ021-048>050-054>055-161600-
EASTERN WEST VIRGINIA PANHANDLE

CITY           SKY/WX    TMP DP  RH WIND       PRES   REMARKS
MARTINSBURG    CLOUDY    35  25  66 NE3       30.43S
PETERSBURG*    CLOUDY    39  31  73 CALM      30.41S

$$

VAZ036>039-050-161600-
CENTRAL FOOTHILLS

CITY           SKY/WX    TMP DP  RH WIND       PRES   REMARKS
CHARLOTTESVILL CLOUDY    41  38  89 S6        30.45R FOG
CULPEPER*      CLOUDY    40  36  85 S5        30.48R
ORANGE*          N/A     41  41 100 CALM      30.48R FOG
GORDONSVILLE*  CLOUDY    40  40  99 S3        30.46R FOG
WARRENTON*     CLOUDY    42  30  64 S5        30.46R

$$

VAZ055>057-161600-
NORTH AND CENTRAL PIEDMONT

CITY           SKY/WX    TMP DP  RH WIND       PRES   REMARKS
FREDERICKSBRG* CLOUDY    40  34  79 SE5       30.48S
STAFFORD*      CLOUDY    39  31  75 SE3       30.52R

$$

NCZ024-NYZ072-PAZ021-071-VAZ022-071-161600-
OTHER REGIONAL OBSERVATIONS

CITY           SKY/WX    TMP DP  RH WIND       PRES   REMARKS
NEW YORK CITY  SUNNY     34  20  56 CALM      30.49S
PHILADELPHIA   CLOUDY    33  22  63 CALM      30.50R
PITTSBURGH     CLOUDY    29  23  78 CALM      30.34R
ROANOKE        CLOUDY    40  38  93 SE6       30.45R
RICHMOND       CLOUDY    39  35  86 CALM      30.49R
RALEIGH        CLOUDY    45  23  42 E6        30.45R

$$

ANZ530>537-161600-
MARINE OBSERVATIONS

STATION/POSITION TIME  TEMP    WIND        PRES
                       AIR SEA DIR/SP/G
                 (UTC) (F)     (DEG/KT/KT) (MB)
THOMAS PT LIGHT  1500   35 38  130/  3/  4   N/A
BALT KEY BRIDGE  1448   33      70/  4/  5 1032.8R
COVE POINT       1448   37     160/  2/  3 1033.3R
LEWISETTA        1448   39 42   90/  6/  7 1032.2R
SOLOMONS ISLAND  1442   38 40   90/  4/  5   N/A
PINEY POINT      1448          130/  4/  4   N/A

$$




USA.gov is the U.S. government's official web portal to all federal, state and local government web resources and services.